www.pogodaiklimat.ru

Погода и климат >> Архив погоды >> Россия >> Ханты-Мансийский АО >> Югорск


ПОГОДА в Югорске

  • Прогноз погоды в Югорске
  • Монитор погоды в Югорске

АРХИВ ПОГОДЫ в Югорске

Время (UTC), дата Ветер
(напр.,м/с)
 
Видим.   Явления Облачность Т
(С)
Тd
(С)
f
(%)
Тe
(С)
Тes
(С)
Комфортность P
(гПа)
Po
(гПа)
Тmin
(С)
Tmax
(С)
R
(мм)
R24
(мм)
S
(см)
09 13.08 С 2 н/о н/о +14.0 +12.3 89 +13 +13 1011.5 998.2
12 13.08 С 1 н/о н/о +18.3 +14.1 76 +20 +20 1011.2 998.1
15 13.08 С 1 н/о н/о +13.7 +12.5 92 +14 +14 1012.2 998.9 +18.7 2
18 13.08 СВ 1 н/о н/о +13.4 +13.0 97 +13 +13 1013.0 999.6
21 13.08 СВ 1 н/о н/о +14.1 +13.7 97 +14 +14 1013.0 999.7
00 14.08 штиль 0 н/о н/о +14.5 +14.2 98 +14 +14 1013.3 1000.0
06 14.08 В 1 н/о н/о +22.0 +15.2 65 +26 +26 душно 1013.3 1000.3
09 14.08 ЮВ 1 н/о н/о +24.8 +10.9 42 +26 +26 жарко 1012.7 999.8
12 14.08 штиль 0 н/о н/о +23.8 +13.5 52 +26 +26 жарко 1012.3 999.4
15 14.08 штиль 0 н/о н/о +17.9 +14.9 83 +18 +18 1012.7 999.6 +26.1
18 14.08 штиль 0 н/о н/о +12.4 +12.0 97 +12 +12 1013.3 999.8
21 14.08 СВ 1 н/о н/о +10.5 +10.2 98 +10 +10 1013.2 999.7
00 15.08 штиль 0 н/о н/о +8.8 +8.5 98 +8 +8 1013.1 999.5
03 15.08 Ю 1 н/о н/о +13.5 +13.2 98 +14 +14 1013.5 1000.2 +8.7
06 15.08 штиль 0 н/о н/о +22.4 +13.7 58 +26 +26 жарко 1012.9 999.9
09 15.08 З 1 н/о н/о +25.6 +13.5 47 +28 +28 жарко 1012.6 999.8
12 15.08 З 2 н/о н/о +24.6 +13.9 51 +27 +27 жарко 1012.9 1000.0
15 15.08 штиль 0 н/о н/о +20.5 +16.4 77 +23 +23 комфорт 1013.3 1000.3 +26.3
18 15.08 штиль 0 н/о н/о +16.3 +15.8 97 +16 +16 1013.8 1000.5
21 15.08 штиль 0 н/о н/о +16.1 +15.7 97 +16 +16 1013.6 1000.3
00 16.08 штиль 0 н/о н/о +15.7 +15.4 98 +15 +15 1013.6 1000.3
03 16.08 штиль 0 н/о н/о +16.8 +16.5 98 +17 +17 1013.4 1000.2 +15.4
06 16.08 ЮВ 1 н/о н/о +21.6 +13.9 62 +24 +24 комфорт 1012.9 999.9
09 16.08 Ю 2 н/о н/о +25.0 +13.6 49 +27 +27 жарко 1011.7 998.9
12 16.08 ЮЗ 1 н/о н/о +23.2 +15.4 62 +27 +27 душно 1011.6 998.7
15 16.08 ЮЗ 1 н/о н/о +21.1 +16.1 73 +24 +24 комфорт 1012.0 999.0 +25.7
18 16.08 Ю 1 н/о н/о +19.0 +15.7 81 +21 +21 комфорт 1012.5 999.4
21 16.08 штиль 0 н/о н/о +15.1 +14.6 97 +15 +15 1012.7 999.4
00 17.08 Ю 1 н/о н/о +15.9 +14.6 92 +17 +17 1014.0 1000.7
03 17.08 штиль 0 н/о н/о +15.2 +14.7 97 +15 +15 1014.5 1001.2 +14.5 1
06 17.08 Ю 1 н/о н/о +19.6 +12.8 65 +22 +22 комфорт 1015.5 1002.4
09 17.08 З 2 н/о н/о +22.3 +8.7 42 +24 +24 комфорт 1015.5 1002.5
12 17.08 ЮЗ 2 н/о н/о +21.6 +9.8 47 +23 +23 комфорт 1016.4 1003.3
15 17.08 штиль 0 н/о н/о +16.7 +13.4 81 +17 +17 1017.2 1003.9 +23.0
18 17.08 штиль 0 н/о н/о +10.9 +10.4 97 +10 +10 1018.3 1004.7
21 17.08 штиль 0 н/о н/о +9.4 +9.1 98 +8 +8 1018.9 1005.2
00 18.08 штиль 0 н/о н/о +8.0 +7.7 98 +7 +7 1019.9 1006.2
03 18.08 ЮЗ 1 н/о н/о +12.2 +11.8 97 +12 +12 1020.7 1007.1 +7.5
06 18.08 З 2 н/о н/о +19.6 +10.5 56 +21 +21 комфорт 1021.0 1007.8
09 18.08 З 2 н/о н/о +21.6 +9.1 45 +23 +23 комфорт 1021.3 1008.2
12 18.08 СВ 1 н/о н/о +21.8 +10.2 48 +24 +24 комфорт 1022.1 1009.0
15 18.08 штиль 0 н/о н/о +16.2 +12.3 78 +16 +16 1023.6 1010.2 +23.2
18 18.08 штиль 0 н/о н/о +10.4 +9.9 97 +10 +10 1025.6 1011.9
21 18.08 штиль 0 н/о н/о +7.9 +7.5 97 +7 +7 1026.9 1013.0
00 19.08 штиль 0 н/о н/о +5.5 +5.2 98 +4 +4 1028.5 1014.5
03 19.08 штиль 0 н/о н/о +9.2 +8.9 98 +8 +8 1029.3 1015.5 +5.0
06 19.08 СВ 1 н/о н/о +18.4 +7.5 49 +20 +20 1029.2 1015.8
09 19.08 СВ 1 н/о н/о +20.8 +7.7 43 +23 +23 комфорт 1028.1 1014.9
12 19.08 З 1 н/о н/о +21.0 +7.8 43 +23 +23 комфорт 1027.4 1014.2

 

Местоположение метеостанции Югорск (Ханты-Мансийский АО, Россия): широта 61.30 долгота 63.37 высота над уровнем моря 113 м.

В архиве по умолчанию представлена погода в Югорске за последнюю неделю. Архивные данные за месяц целиком и за предыдущие месяцы, начиная с января 2011 года, Вы можете получить, выбрав интересующий диапазон дат из раскрывающегося списка и нажав кнопку "Ввод!".


*Определитесь, кто Вы:
робот инопланетянин человек

Внимание! Время в таблицах - всемирное. Для получения местного времени необходимо прибавить поправку, которая равна 5 ч.

Смотрите также архив погоды в соседних городах и на ближайших метеорологических станциях:

Погода в Атымье (Свердловская область, Россия) (69 км)
Погода в Агирише (Ханты-Мансийский АО, Россия) (71 км)
Погода в Вонъегане (Ханты-Мансийский АО, Россия) (108 км)
Погода в Шаиме (Ханты-Мансийский АО, Россия) (118 км)
Погода в Бурмантово (Свердловская область, Россия) (155 км)
Погода в Талинке (Ханты-Мансийский АО, Россия) (167 км)
Погода в Ивделе (Свердловская область, Россия) (172 км)
Погода в Няксимволе (Ханты-Мансийский АО, Россия) (182 км)
Погода в Октябрьском (Ханты-Мансийский АО, Россия) (190 км)
Погода в Гарях (Свердловская область, Россия) (216 км)

Пояснения к столбцам:

Ветер - указаны скорость ветра в м/с - средняя за 10 мин, порывы в срок и между сроками (в фигурных скобках) и направление, откуда дует ветер: С - северный, СВ - северо-восточный, В - восточный, ЮВ - юго-восточный, Ю - южный, ЮЗ - юго-западный, З - западный, СЗ - северо-западный.
Видимость - горизонтальная дальность видимости в метрах или километрах. При видимости от 1 до 10 км при отсутствии осадков обычно наблюдается дымка, при ухудшении видимости до 1 км и менее - туман. В сухую погоду видимость может ухудшаться дымом, пылью или мглою.
Явления - указаны атмосферные явления, наблюдавшиеся в срок или в последний час перед сроком; фигурными скобками обозначены явления, наблюдавшиеся между сроками (за 1-3 часа до срока); квадратными скобками обозначены град или гололедные отложения с указанием их диаметра в мм.
Облачность - указаны через наклонную черту общая и нижняя облачность в баллах и высота нижней границы облаков в метрах; квадратными скобками обозначены формы облаков: Ci - перистые, Cs - перисто-слоистые, Cc - перисто-кучевые, Ac - высококучевые, As - высокослоистые, Sc - слоисто-кучевые, Ns - слоисто-дождевые, Cu - кучевые, Cb - кучево-дождевые. Подробнее классификацию облаков см. в Атласе облаков (PDF).
T - Температура воздуха - температура, измеренная на высоте 2 м над землей.
Td - Температура точки росы - температура, при понижении до которой содержащийся в воздухе водяной пар достигнет насыщения.
f - Относительная влажность воздуха - влажноcть воздуха, измеренная на высоте 2 м над землей.
Te - Эффективная температура - температура, которую ощущает одетый по сезону человек в тени. Характеристика душности погоды. При расчете учитывается влияние влажности воздуха и скорости ветра на теплоощущения человека.
Tes - Эффективная температура на солнце - температура, которую ощущает человек, с поправкой на солнечный нагрев. Характеристика знойности погоды. Зависит от высоты солнца над горизонтом, облачности и скорости ветра. Ночью, в пасмурную погоду, а также при ветре 12 м/с и более поправка равна нулю.
P - Атмосферное давление - приведенное к уровню моря атмосферное давление.
Po - Атмосферное давление - измеренное на уровне метеостанции атмосферное давление.
Tmin - Минимальная температура - минимум температуры воздуха на высоте 2 м над землей.
Tmax - Максимальная температура - максимум температуры воздуха на высоте 2 м над землей.
R - Количество осадков - Количество выпавших осадков за период времени, мм. При наведении курсора мыши на число - период времени, за который выпало указанное количество осадков.
R24 - Количество осадков - Количество выпавших осадков за 24 часа, мм.
S - Снежный покров - Высота снежного покрова, см. При наведении курсора мыши на число - состояние снежного покрова и степень покрытия местности в баллах.